Location: Alto Pass Reservoir
(37.5801°N, 89.3084°W)
Time: 11:37:48
(UTC+00:00)

NEOSSAT - Pass Details

Date: 05 October 2022
Orbit: 767 x 784 km, 98.4° (Epoch: 26 November)

Event Time Altitude Azimuth Distance (km) Brightness Sun altitude
Rises 01:05:50 0° 8° (N) 3,281 ? -18.7°
Reaches altitude 10° 01:08:11 10° 5° (N) 2,349 ? -19.1°
Maximum altitude 01:13:16 60° 287° (WNW) 894 ? -20.1°
Drops below altitude 10° 01:18:20 10° 208° (SSW) 2,331 ? -21.1°
Sets 01:20:40 0° 204° (SSW) 3,254 ? -21.6°
